[[{"header":{"parameterUnit":"m.s-1","parameterCategory":1,"la1":30.2991,"la2":30.254,"lo1":-89.0895,"lo2":-89.0444,"dy":0.0017,"dx":0.0017,"nx":28,"ny":28,"refTime":"2024-08-23T03:00:00:Z","depth":0,"parameterNumber":2,"parameterNumberName":"U-component_of_WINDS"},"data":[0,0,0,0,0,0,0,0,0,0,0,0,0,0,0,0,0,0,0,0,0,0,0,0,0,0,0,0,0,0,0,0,0,0,0,0,0,0,0,0,0,0,0,0,0,0,0,0,0,0,0,0,0,0,0,0,0,0,-2.468,-2.4682,0,-2.4842,-2.4844,-2.4846,-2.4867,-2.4866,-2.4864,-2.4863,-2.5035,-2.5041,-2.5047,0,0,0,0,0,0,0,0,0,0,0,0,0,-2.4393,-2.4398,-2.468,-2.4682,-2.4684,-2.4842,-2.4844,-2.4847,-2.4868,-2.4866,-2.4864,-2.4862,-2.5033,-2.504,-2.5048,0,0,0,0,0,0,0,0,0,0,0,0,0,-2.4533,-2.44,-2.468,-2.4713,-2.4718,-2.4842,-2.4845,-2.4847,-2.4868,-2.4866,-2.4863,-2.4861,-2.5031,-2.504,-2.5049,-2.5152,0,0,-2.5076,-2.508,0,0,0,0,0,0,0,0,-2.4525,-2.4543,-2.4706,-2.4711,-2.4717,-2.4832,-2.4806,-2.495,-2.4869,-2.4811,-2.4863,-2.486,-2.497,-2.4984,-2.502,-2.516,-2.5167,-2.5077,-2.5083,-2.5086,-2.5089,0,0,0,0,0,0,0,-2.4515,-2.4537,-2.4744,-2.4709,-2.4715,-2.4722,-2.4739,-2.4834,-2.4902,-2.4816,-2.4818,-2.4837,-2.4972,-2.5011,-2.5024,-2.517,-2.5077,-2.5085,-2.509,-2.5094,-2.5403,-2.5406,0,0,0,0,0,0,-2.4498,-2.4528,-2.4739,-2.4749,-2.4613,-2.4729,-2.4748,-2.4798,-2.4901,-2.4914,-2.4838,-2.4837,-2.4996,-2.5013,-2.503,-2.5158,-2.5086,-2.5095,-2.51,-2.5401,-2.5404,-2.5407,0,0,0,0,0,0,-2.4492,-2.4517,-2.4733,-2.4639,-2.4667,-2.4737,-2.4792,-2.4802,-2.4841,-2.4918,-2.4931,-2.4865,-2.4995,-2.5017,-2.5121,-2.5164,-2.5099,-2.5107,-2.5397,-2.5402,-2.5405,-2.5415,0,0,0,0,0,0,-2.4484,-2.4515,-2.4554,-2.464,-2.4672,-2.482,-2.4794,-2.4807,-2.4855,-2.4855,-2.4946,-2.4959,-2.4995,-2.5107,-2.513,-2.5176,-2.5114,-2.5394,-2.5399,-2.5404,-2.5411,-2.5419,-2.5425,0,0,0,0,0,-2.4474,-2.4551,-2.4555,-2.4581,-2.4722,-2.4822,-2.4841,-2.4879,-2.4859,-2.4899,-2.4949,-2.4956,-2.5155,-2.5118,-2.5143,-2.5193,-2.5391,-2.5398,-2.5404,-2.5408,-2.5417,-2.5425,0,0,0,0,0,0,-2.447,-2.4563,-2.4569,-2.4676,-2.4741,-2.4825,-2.4878,-2.4888,-2.4961,-2.4958,-2.5004,-2.5024,-2.5126,-2.517,-2.5126,-2.5298,-2.5272,-2.5283,-2.5266,-2.5276,-2.5283,-2.5271,-2.5122,0,0,0,0,0,-2.4482,-2.4553,-2.4631,-2.4719,-2.475,-2.4808,-2.4853,-2.4877,-2.4946,-2.4974,-2.5032,-2.51,-2.5179,-2.5229,-2.5306,-2.5417,-2.5438,-2.5463,-2.547,-2.5476,-2.5486,-2.5549,-2.5562,-2.5427,-2.5427,-2.5427,0,0,-2.4507,-2.4566,-2.4609,-2.4719,-2.4772,-2.4847,-2.4831,-2.4911,-2.4968,-2.4987,-2.5088,-2.5132,-2.5213,-2.532,-2.5371,-2.536,-2.5528,-2.5484,-2.5488,-2.5495,-2.5557,-2.5569,-2.5581,-2.5432,-2.5431,-2.543,0,0,-2.4591,-2.4643,-2.4721,-2.4774,-2.4853,-2.489,-2.4909,-2.4992,-2.5021,-2.5123,-2.5139,-2.5208,-2.5341,-2.5398,-2.5444,-2.5547,-2.5558,-2.5571,-2.561,-2.567,-2.5681,-2.5691,-2.5729,-2.5742,-2.5581,-2.5581,-2.5581,0,-2.4613,-2.4725,-2.4761,-2.484,-2.4888,-2.4906,-2.4987,-2.5037,-2.5138,-2.5172,-2.5157,-2.5325,-2.538,-2.5502,-2.5527,-2.5563,-2.5587,-2.5562,-2.5676,-2.5686,-2.5696,-2.5733,-2.5747,-2.5582,-2.5582,-2.5582,-2.5581,0,-2.4748,-2.4826,-2.488,-2.4974,-2.5029,-2.5108,-2.5157,-2.5209,-2.5227,-2.5266,-2.537,-2.5436,-2.5526,-2.5557,-2.5576,-2.5681,-2.5672,-2.5666,-2.5641,-2.5709,-2.5745,-2.5759,-2.5584,-2.5583,-2.5583,-2.5582,0,0,-2.4838,-2.4949,-2.4969,-2.5011,-2.5099,-2.5161,-2.5241,-2.5327,-2.537,-2.5439,-2.5509,-2.562,-2.5615,-2.5667,-2.5694,-2.5747,-2.5826,-2.5735,-2.5737,-2.575,-2.5947,-2.5952,-2.5968,-2.5832,-2.5835,-2.5837,-2.5941,0,-2.4933,-2.5075,-2.5109,-2.5232,-2.5304,-2.5322,-2.5392,-2.5454,-2.5493,-2.5562,-2.5605,-2.5684,-2.567,-2.5702,-2.5755,-2.5805,-2.5866,-2.5798,-2.59,-2.5903,-2.5881,-2.5986,-2.5992,-2.6086,-2.5955,-2.5957,-2.5959,0,-2.5064,-2.5133,-2.5262,-2.534,-2.5371,-2.5434,-2.5515,-2.5579,-2.5651,-2.5675,-2.5732,-2.5753,-2.5839,-2.5808,-2.5928,-2.5881,-2.5924,-2.5955,-2.596,-2.5972,-2.5936,-2.6003,-2.6118,-2.6132,-2.5981,-2.5979,-2.5978,0,-2.5118,-2.5243,-2.5336,-2.5372,-2.5465,-2.5508,-2.5549,-2.5618,-2.5667,-2.5739,-2.5771,-2.5853,-2.5898,-2.5961,-2.6003,-2.5976,-2.6121,-2.6093,-2.6146,-2.6145,-2.6177,-2.6175,-2.6302,-2.6202,-2.6202,-2.6202,-2.6201,0,-2.5222,-2.5301,-2.5361,-2.5419,-2.5508,-2.5546,-2.5634,-2.5675,-2.5736,-2.5804,-2.5824,-2.5887,-2.5938,-2.6009,-2.6043,-2.6138,-2.6158,-2.6182,-2.619,-2.6181,-2.6178,-2.6212,-2.6207,-2.6205,-2.6205,-2.6204,-2.6203,0,-2.5298,-2.5342,-2.5445,-2.5523,-2.5544,-2.5606,-2.5674,-2.5732,-2.577,-2.5855,-2.5877,-2.5938,-2.6022,-2.607,-2.6177,-2.6199,-2.6306,-2.631,-2.6281,-2.6285,-2.6336,-2.6331,-2.6491,-2.6514,-2.6397,-2.6398,-2.6399,0,-2.5363,-2.5423,-2.5507,-2.5552,-2.5593,-2.5666,-2.5716,-2.5756,-2.5807,-2.5892,-2.594,-2.6024,-2.6094,-2.6228,-2.6283,-2.6365,-2.6373,-2.6423,-2.6386,-2.6374,-2.6376,-2.6372,-2.6379,-2.643,-2.6431,-2.6432,-2.6433,0,-2.5473,-2.5491,-2.5561,-2.5638,-2.5695,-2.5759,-2.5821,-2.5858,-2.5909,-2.5965,-2.605,-2.6104,-2.6211,-2.6296,-2.6382,-2.6426,-2.6439,-2.6443,-2.646,-2.6453,-2.6434,-2.6446,-2.6301,-2.644,-2.644,-2.6439,-2.6439,-2.6438,-2.5547,-2.5602,-2.5669,-2.5745,-2.5796,-2.5854,-2.5911,-2.5955,-2.6026,-2.6115,-2.6134,-2.6224,-2.6294,-2.641,-2.6457,-2.6529,-2.652,-2.6544,-2.6551,-2.6557,-2.6559,-2.642,-2.6545,-2.6544,-2.6544,-2.6544,-2.6544,0,-2.566,-2.5703,-2.5773,-2.5859,-2.5919,-2.5922,-2.5991,-2.6043,-2.612,-2.6183,-2.6251,-2.6349,-2.643,-2.6491,-2.6575,-2.6621,-2.6629,-2.6642,-2.664,-2.665,-2.6561,-2.6539,-2.6634,-2.6634,-2.6634,-2.6634,-2.6634,-2.6634,-2.5726,-2.5819,-2.5844,-2.5962,-2.6006,-2.6092,-2.6131,-2.6185,-2.6235,-2.6342,-2.6409,-2.6447,-2.651,-2.6598,-2.6673,-2.6689,-2.672,-2.6733,-2.675,-2.6666,-2.6656,-2.6647,-2.6627,-2.6738,-2.6739,-2.6833,-2.6834,-2.6834]},{"header":{"parameterUnit":"m.s-1","parameterCategory":1,"la1":30.2991,"la2":30.254,"lo1":-89.0895,"lo2":-89.0444,"dy":0.0017,"dx":0.0017,"nx":28,"ny":28,"refTime":"2024-08-23T03:00:00:Z","depth":0,"parameterNumber":3,"parameterNumberName":"V-component_of_WINDS"},"data":[0,0,0,0,0,0,0,0,0,0,0,0,0,0,0,0,0,0,0,0,0,0,0,0,0,0,0,0,0,0,0,0,0,0,0,0,0,0,0,0,0,0,0,0,0,0,0,0,0,0,0,0,0,0,0,0,0,0,1.0913,1.0913,0,1.0825,1.0824,1.0823,1.08,1.08,1.0801,1.0801,1.0704,1.0701,1.0698,0,0,0,0,0,0,0,0,0,0,0,0,0,1.1056,1.1053,1.0914,1.0912,1.0911,1.0825,1.0824,1.0823,1.08,1.08,1.0801,1.0802,1.0705,1.0701,1.0698,0,0,0,0,0,0,0,0,0,0,0,0,0,1.0983,1.1053,1.0914,1.089,1.0887,1.0826,1.0824,1.0823,1.0799,1.08,1.0801,1.0802,1.0706,1.0702,1.0697,1.0652,0,0,1.0683,1.0681,0,0,0,0,0,0,0,0,1.0987,1.0978,1.0894,1.0891,1.0888,1.0824,1.0839,1.0765,1.0799,1.0832,1.0801,1.0802,1.0743,1.0735,1.0717,1.0647,1.0643,1.0683,1.068,1.0678,1.0676,0,0,0,0,0,0,0,1.0993,1.0982,1.0878,1.0893,1.0889,1.0881,1.0872,1.0825,1.0784,1.0829,1.0828,1.0818,1.0741,1.0721,1.0714,1.0642,1.0683,1.0679,1.0676,1.0674,1.053,1.0529,0,0,0,0,0,0,1.1003,1.0986,1.0881,1.0876,1.0941,1.0878,1.0867,1.0844,1.0784,1.0776,1.0817,1.0817,1.0729,1.072,1.0711,1.0653,1.0678,1.0673,1.0671,1.0531,1.0529,1.0528,0,0,0,0,0,0,1.1006,1.0994,1.0885,1.093,1.0916,1.0875,1.0848,1.0842,1.0822,1.0775,1.0767,1.0805,1.0729,1.0717,1.0667,1.0649,1.0671,1.0667,1.0532,1.053,1.0529,1.0538,0,0,0,0,0,0,1.101,1.0995,1.0979,1.093,1.0914,1.0844,1.0847,1.0839,1.0814,1.0813,1.0761,1.0753,1.0729,1.0674,1.0662,1.0643,1.0663,1.0533,1.0531,1.0529,1.0539,1.0537,1.0535,0,0,0,0,0,1.1015,1.0983,1.0978,1.0965,1.0893,1.0843,1.0834,1.0808,1.0813,1.0795,1.0766,1.0755,1.0654,1.0669,1.0656,1.0635,1.0534,1.0532,1.0529,1.054,1.0537,1.0535,0,0,0,0,0,0,1.1028,1.0977,1.097,1.0922,1.0888,1.084,1.0817,1.0806,1.0768,1.0768,1.0736,1.0724,1.0676,1.065,1.0669,1.0588,1.0593,1.0588,1.0606,1.0603,1.0601,1.0607,1.066,0,0,0,0,0,1.1026,1.0992,1.0948,1.091,1.0893,1.0858,1.0836,1.0819,1.0781,1.0766,1.0732,1.0694,1.0653,1.0627,1.0587,1.0536,1.0523,1.0515,1.0513,1.0511,1.0506,1.0476,1.0471,1.0521,1.0521,1.0521,0,0,1.102,1.0988,1.0968,1.0912,1.0883,1.0847,1.0846,1.0807,1.0779,1.0759,1.071,1.0684,1.0639,1.0588,1.0563,1.0565,1.049,1.0508,1.0508,1.0503,1.0473,1.0468,1.0464,1.0519,1.0519,1.0519,0,0,1.0991,1.0964,1.0929,1.0901,1.0858,1.0835,1.0827,1.078,1.0763,1.0714,1.0697,1.0663,1.0594,1.0562,1.0537,1.0496,1.0484,1.0484,1.0473,1.0444,1.044,1.0436,1.042,1.0415,1.048,1.048,1.048,0,1.0988,1.0935,1.0911,1.0874,1.0849,1.0832,1.0795,1.0768,1.0713,1.0695,1.0699,1.0612,1.058,1.0521,1.0511,1.0492,1.048,1.0489,1.0443,1.0439,1.0435,1.0419,1.0413,1.048,1.048,1.048,1.048,0,1.0933,1.0896,1.0873,1.0823,1.0795,1.0758,1.0727,1.0702,1.0688,1.0664,1.0613,1.0575,1.0527,1.0512,1.0497,1.045,1.0452,1.045,1.0454,1.0431,1.0415,1.0409,1.048,1.048,1.048,1.048,0,0,1.0908,1.0847,1.0838,1.0815,1.0767,1.0737,1.0699,1.0654,1.0632,1.0595,1.0561,1.0503,1.0501,1.0472,1.0454,1.0429,1.0397,1.0429,1.0427,1.0423,1.034,1.0341,1.0335,1.039,1.0388,1.0387,1.0344,0,1.0871,1.0804,1.0782,1.0725,1.069,1.0673,1.0639,1.0605,1.0582,1.0546,1.052,1.0479,1.048,1.0462,1.0437,1.0406,1.0379,1.0409,1.0354,1.0353,1.0365,1.0327,1.0328,1.0288,1.0338,1.0337,1.0336,0,1.0819,1.0784,1.0724,1.068,1.0664,1.0635,1.0591,1.0559,1.0519,1.0504,1.0473,1.0457,1.0414,1.0423,1.0362,1.0383,1.0359,1.0341,1.0339,1.0331,1.0342,1.0316,1.0275,1.0268,1.0326,1.0327,1.0328,0,1.0805,1.0742,1.0698,1.0679,1.0627,1.0607,1.0584,1.0545,1.0519,1.0481,1.0464,1.042,1.0396,1.0361,1.0333,1.0343,1.0274,1.0281,1.0258,1.0258,1.0242,1.0243,1.0195,1.023,1.023,1.0231,1.0231,0,1.0765,1.0728,1.0691,1.0664,1.0622,1.0596,1.0555,1.0531,1.0497,1.0463,1.0445,1.0413,1.0379,1.0342,1.0319,1.0271,1.026,1.0245,1.0239,1.0246,1.0247,1.0228,1.0229,1.0229,1.0229,1.023,1.023,0,1.0741,1.0715,1.0665,1.0621,1.0609,1.058,1.0541,1.0513,1.049,1.0447,1.0435,1.0397,1.0353,1.0322,1.0264,1.0249,1.0196,1.0192,1.021,1.0207,1.0185,1.0187,1.0121,1.011,1.0155,1.0154,1.0154,0,1.0717,1.0688,1.0642,1.0619,1.0597,1.056,1.0534,1.0508,1.0481,1.0434,1.0411,1.0366,1.0328,1.0257,1.0223,1.0179,1.0172,1.0152,1.0164,1.0172,1.0169,1.017,1.0166,1.0149,1.0149,1.0148,1.0148,0,1.0675,1.0664,1.0628,1.0588,1.0559,1.0525,1.0491,1.0473,1.044,1.0411,1.0366,1.0338,1.028,1.0234,1.0187,1.016,1.0148,1.0145,1.0137,1.0142,1.0153,1.0145,1.0203,1.0146,1.0146,1.0146,1.0146,1.0146,1.0649,1.0623,1.0586,1.0547,1.0519,1.0488,1.0459,1.0433,1.0396,1.0348,1.0335,1.0288,1.0248,1.0183,1.0157,1.0118,1.0119,1.0108,1.0104,1.0102,1.0101,1.0161,1.0109,1.0109,1.0109,1.0109,1.0109,0,1.0605,1.0581,1.0545,1.05,1.0468,1.0463,1.0425,1.0398,1.0358,1.0323,1.0287,1.0235,1.0191,1.0154,1.0108,1.0085,1.0077,1.0073,1.0073,1.0067,1.0103,1.0114,1.008,1.008,1.008,1.008,1.008,1.008,1.0579,1.0534,1.0518,1.0459,1.0434,1.039,1.0368,1.0339,1.0311,1.0255,1.0219,1.0196,1.016,1.0111,1.007,1.006,1.0042,1.0039,1.0028,1.0061,1.0065,1.0068,1.0078,1.0036,1.0036,0.9994,0.9994,0.9994]}]]